Time,TemperatureF,DewpointF,PressureIn,WindDirection,WindDirectionDegrees,WindSpeedMPH,WindSpeedGustMPH,Humidity,HourlyPrecipIn,Conditions,Clouds,dailyrainin,SoftwareType,DateUTC
2013-01-20 00:01:00,33.9,29.0,29.78,SSE,157,2.0,5.0,81,0.00,,,0.00,Rainwise IP-100,2013-01-20 05:01:00,
2013-01-20 00:02:00,34.3,29.0,29.78,SSE,157,2.0,5.0,81,0.00,,,0.00,Rainwise IP-100,2013-01-20 05:02:00,
2013-01-20 00:04:00,34.7,29.0,29.77,SW,225,1.0,8.0,79,0.00,,,0.00,Rainwise IP-100,2013-01-20 05:04:00,
2013-01-20 00:09:00,35.4,29.0,29.77,South,180,1.0,6.0,78,0.00,,,0.00,Rainwise IP-100,2013-01-20 05:09:00,
2013-01-20 00:11:00,35.5,29.0,29.77,SSE,157,2.0,6.0,78,0.00,,,0.00,Rainwise IP-100,2013-01-20 05:11:00,
2013-01-20 00:16:00,36.3,29.0,29.77,South,180,11.0,13.0,78,0.00,,,0.00,Rainwise IP-100,2013-01-20 05:16:00,
2013-01-20 00:21:00,37.1,31.0,29.76,SSE,157,5.0,15.0,77,0.00,,,0.00,Rainwise IP-100,2013-01-20 05:21:00,
2013-01-20 00:26:00,37.3,31.0,29.76,South,180,3.0,13.0,77,0.00,,,0.00,Rainwise IP-100,2013-01-20 05:26:00,
2013-01-20 00:31:00,37.4,31.0,29.76,South,180,6.0,12.0,77,0.00,,,0.00,Rainwise IP-100,2013-01-20 05:31:00,
2013-01-20 00:36:00,37.2,31.0,29.76,South,180,6.0,11.0,76,0.00,,,0.00,Rainwise IP-100,2013-01-20 05:36:00,
2013-01-20 00:41:00,37.1,31.0,29.75,South,180,4.0,14.0,75,0.00,,,0.00,Rainwise IP-100,2013-01-20 05:41:00,
2013-01-20 00:48:00,37.0,31.0,29.75,South,180,2.0,6.0,76,0.00,,,0.00,Rainwise IP-100,2013-01-20 05:48:00,
2013-01-20 00:53:00,37.1,31.0,29.75,WNW,292,2.0,7.0,75,0.00,,,0.00,Rainwise IP-100,2013-01-20 05:53:00,
2013-01-20 00:58:00,37.3,31.0,29.75,SSE,157,2.0,5.0,75,0.00,,,0.00,Rainwise IP-100,2013-01-20 05:58:00,
2013-01-20 01:03:00,37.0,31.0,29.75,South,180,1.0,6.0,76,0.00,,,0.00,Rainwise IP-100,2013-01-20 06:03:00,
2013-01-20 01:08:00,36.9,31.0,29.75,South,180,4.0,5.0,77,0.00,,,0.00,Rainwise IP-100,2013-01-20 06:08:00,
2013-01-20 01:13:00,36.9,31.0,29.75,SSW,202,1.0,5.0,77,0.00,,,0.00,Rainwise IP-100,2013-01-20 06:13:00,
2013-01-20 01:18:00,36.8,31.0,29.75,SSE,157,2.0,6.0,78,0.00,,,0.00,Rainwise IP-100,2013-01-20 06:18:00,
2013-01-20 01:23:00,36.8,31.0,29.74,SSE,157,4.0,9.0,78,0.00,,,0.00,Rainwise IP-100,2013-01-20 06:23:00,
2013-01-20 01:28:00,36.9,31.0,29.74,South,180,2.0,9.0,79,0.00,,,0.00,Rainwise IP-100,2013-01-20 06:28:00,
2013-01-20 01:34:00,37.0,31.0,29.74,SSE,157,3.0,9.0,79,0.00,,,0.00,Rainwise IP-100,2013-01-20 06:34:00,
2013-01-20 01:39:00,37.1,31.0,29.73,SSE,157,4.0,7.0,79,0.00,,,0.00,Rainwise IP-100,2013-01-20 06:39:00,
2013-01-20 01:45:00,37.2,31.0,29.73,South,180,2.0,6.0,78,0.00,,,0.00,Rainwise IP-100,2013-01-20 06:45:00,
2013-01-20 01:50:00,37.1,31.0,29.73,ESE,112,2.0,3.0,78,0.00,,,0.00,Rainwise IP-100,2013-01-20 06:50:00,
2013-01-20 01:55:00,37.0,31.0,29.73,South,180,2.0,4.0,77,0.00,,,0.00,Rainwise IP-100,2013-01-20 06:55:00,
2013-01-20 02:00:00,36.6,31.0,29.72,NE,45,1.0,2.0,79,0.00,,,0.00,Rainwise IP-100,2013-01-20 07:00:00,
2013-01-20 02:05:00,36.2,31.0,29.72,West,270,1.0,2.0,80,0.00,,,0.00,Rainwise IP-100,2013-01-20 07:05:00,
2013-01-20 02:10:00,36.2,29.0,29.71,WNW,292,1.0,2.0,77,0.00,,,0.00,Rainwise IP-100,2013-01-20 07:10:00,
2013-01-20 02:15:00,36.1,29.0,29.71,WNW,292,0.0,2.0,78,0.00,,,0.00,Rainwise IP-100,2013-01-20 07:15:00,
2013-01-20 02:20:00,35.9,31.0,29.70,WNW,292,0.0,0.0,79,0.00,,,0.00,Rainwise IP-100,2013-01-20 07:20:00,
2013-01-20 02:25:00,35.7,29.0,29.70,WNW,292,0.0,2.0,78,0.00,,,0.00,Rainwise IP-100,2013-01-20 07:25:00,
2013-01-20 02:30:00,35.4,29.0,29.70,WNW,292,0.0,2.0,80,0.00,,,0.00,Rainwise IP-100,2013-01-20 07:30:00,
2013-01-20 02:35:00,34.9,29.0,29.70,WNW,292,1.0,2.0,80,0.00,,,0.00,Rainwise IP-100,2013-01-20 07:35:00,
2013-01-20 02:40:00,34.4,29.0,29.69,WNW,292,1.0,2.0,81,0.00,,,0.00,Rainwise IP-100,2013-01-20 07:40:00,
2013-01-20 02:46:00,34.3,29.0,29.68,WNW,292,0.0,2.0,80,0.00,,,0.00,Rainwise IP-100,2013-01-20 07:46:00,
2013-01-20 02:51:00,35.4,26.0,29.68,South,180,4.0,6.0,71,0.00,,,0.00,Rainwise IP-100,2013-01-20 07:51:00,
2013-01-20 02:56:00,37.2,26.0,29.67,SSE,157,3.0,9.0,65,0.00,,,0.00,Rainwise IP-100,2013-01-20 07:56:00,
2013-01-20 03:01:00,38.4,26.0,29.67,SSE,157,3.0,8.0,63,0.00,,,0.00,Rainwise IP-100,2013-01-20 08:01:00,
2013-01-20 03:06:00,38.8,28.0,29.66,South,180,4.0,7.0,62,0.00,,,0.00,Rainwise IP-100,2013-01-20 08:06:00,
2013-01-20 03:11:00,38.9,28.0,29.66,SE,135,7.0,8.0,61,0.00,,,0.00,Rainwise IP-100,2013-01-20 08:11:00,
2013-01-20 03:16:00,39.5,28.0,29.66,South,180,6.0,11.0,59,0.00,,,0.00,Rainwise IP-100,2013-01-20 08:16:00,
2013-01-20 03:21:00,39.6,28.0,29.66,SSE,157,7.0,14.0,58,0.00,,,0.00,Rainwise IP-100,2013-01-20 08:21:00,
2013-01-20 03:26:00,39.9,26.0,29.65,SSW,202,9.0,17.0,56,0.06,,,0.01,Rainwise IP-100,2013-01-20 08:26:00,
2013-01-20 03:31:00,40.0,26.0,29.65,South,180,8.0,20.0,56,0.06,,,0.01,Rainwise IP-100,2013-01-20 08:31:00,
2013-01-20 03:36:00,39.9,26.0,29.64,South,180,9.0,16.0,55,0.00,,,0.01,Rainwise IP-100,2013-01-20 08:36:00,
2013-01-20 03:41:00,39.9,26.0,29.64,South,180,9.0,17.0,55,0.00,,,0.01,Rainwise IP-100,2013-01-20 08:41:00,
2013-01-20 03:47:00,39.9,26.0,29.64,South,180,7.0,14.0,54,0.00,,,0.01,Rainwise IP-100,2013-01-20 08:47:00,
2013-01-20 03:52:00,39.9,26.0,29.63,SE,135,4.0,11.0,55,0.00,,,0.01,Rainwise IP-100,2013-01-20 08:52:00,
2013-01-20 03:57:00,39.8,26.0,29.63,South,180,7.0,15.0,55,0.00,,,0.01,Rainwise IP-100,2013-01-20 08:57:00,
2013-01-20 04:02:00,39.9,26.0,29.62,SSW,202,10.0,16.0,54,0.00,,,0.01,Rainwise IP-100,2013-01-20 09:02:00,
2013-01-20 04:08:00,40.0,26.0,29.62,SSE,157,2.0,12.0,54,0.00,,,0.01,Rainwise IP-100,2013-01-20 09:08:00,
2013-01-20 04:13:00,40.1,26.0,29.62,South,180,5.0,11.0,54,0.00,,,0.01,Rainwise IP-100,2013-01-20 09:13:00,
2013-01-20 04:18:00,40.1,26.0,29.62,SE,135,7.0,14.0,54,0.00,,,0.01,Rainwise IP-100,2013-01-20 09:18:00,
2013-01-20 04:23:00,39.8,26.0,29.61,SSE,157,6.0,11.0,54,0.00,,,0.01,Rainwise IP-100,2013-01-20 09:23:00,
2013-01-20 04:28:00,39.7,26.0,29.60,South,180,7.0,14.0,54,0.00,,,0.01,Rainwise IP-100,2013-01-20 09:28:00,
2013-01-20 04:33:00,39.7,26.0,29.60,South,180,7.0,14.0,54,0.00,,,0.01,Rainwise IP-100,2013-01-20 09:33:00,
2013-01-20 04:38:00,39.6,26.0,29.60,SE,135,9.0,18.0,54,0.06,,,0.02,Rainwise IP-100,2013-01-20 09:38:00,
2013-01-20 04:43:00,39.7,26.0,29.60,SSE,157,19.0,19.0,54,0.06,,,0.02,Rainwise IP-100,2013-01-20 09:43:00,
2013-01-20 04:48:00,39.7,26.0,29.59,SSE,157,9.0,21.0,54,0.00,,,0.02,Rainwise IP-100,2013-01-20 09:48:00,
2013-01-20 04:53:00,39.5,26.0,29.58,SSE,157,6.0,13.0,54,0.00,,,0.02,Rainwise IP-100,2013-01-20 09:53:00,
2013-01-20 04:58:00,39.4,24.0,29.58,SW,225,7.0,14.0,54,0.00,,,0.02,Rainwise IP-100,2013-01-20 09:58:00,
2013-01-20 05:04:00,39.2,24.0,29.58,South,180,4.0,11.0,55,0.00,,,0.02,Rainwise IP-100,2013-01-20 10:04:00,
2013-01-20 05:09:00,39.2,24.0,29.58,SSW,202,2.0,14.0,55,0.00,,,0.02,Rainwise IP-100,2013-01-20 10:09:00,
2013-01-20 05:14:00,39.2,24.0,29.57,SSE,157,9.0,14.0,55,0.00,,,0.02,Rainwise IP-100,2013-01-20 10:14:00,
2013-01-20 05:19:00,39.5,26.0,29.57,South,180,7.0,16.0,54,0.00,,,0.02,Rainwise IP-100,2013-01-20 10:19:00,
2013-01-20 05:24:00,39.4,24.0,29.57,SSE,157,2.0,15.0,55,0.00,,,0.02,Rainwise IP-100,2013-01-20 10:24:00,
2013-01-20 05:29:00,39.5,26.0,29.57,South,180,5.0,14.0,55,0.00,,,0.02,Rainwise IP-100,2013-01-20 10:29:00,
2013-01-20 05:34:00,39.5,26.0,29.56,SW,225,4.0,12.0,55,0.00,,,0.02,Rainwise IP-100,2013-01-20 10:34:00,
2013-01-20 05:39:00,39.5,26.0,29.56,SSE,157,9.0,11.0,55,0.00,,,0.02,Rainwise IP-100,2013-01-20 10:39:00,
2013-01-20 05:44:00,39.6,26.0,29.55,South,180,7.0,15.0,55,0.00,,,0.02,Rainwise IP-100,2013-01-20 10:44:00,
2013-01-20 05:49:00,39.6,26.0,29.54,SW,225,7.0,14.0,55,0.00,,,0.02,Rainwise IP-100,2013-01-20 10:49:00,
2013-01-20 05:54:00,39.7,26.0,29.54,South,180,11.0,15.0,56,0.00,,,0.02,Rainwise IP-100,2013-01-20 10:54:00,
2013-01-20 05:59:00,39.6,26.0,29.54,South,180,9.0,16.0,56,0.00,,,0.02,Rainwise IP-100,2013-01-20 10:59:00,
2013-01-20 06:05:00,39.7,26.0,29.54,SSE,157,6.0,18.0,56,0.00,,,0.02,Rainwise IP-100,2013-01-20 11:05:00,
2013-01-20 06:10:00,39.7,26.0,29.53,South,180,9.0,17.0,55,0.00,,,0.02,Rainwise IP-100,2013-01-20 11:10:00,
2013-01-20 06:15:00,39.8,26.0,29.52,South,180,7.0,17.0,56,0.00,,,0.02,Rainwise IP-100,2013-01-20 11:15:00,
2013-01-20 06:20:00,39.7,26.0,29.52,South,180,8.0,15.0,57,0.00,,,0.02,Rainwise IP-100,2013-01-20 11:20:00,
2013-01-20 06:25:00,39.7,26.0,29.52,SW,225,7.0,15.0,56,0.00,,,0.02,Rainwise IP-100,2013-01-20 11:25:00,
2013-01-20 06:30:00,39.7,26.0,29.51,South,180,7.0,14.0,56,0.00,,,0.02,Rainwise IP-100,2013-01-20 11:30:00,
2013-01-20 06:35:00,39.8,26.0,29.51,SSE,157,9.0,19.0,55,0.00,,,0.02,Rainwise IP-100,2013-01-20 11:35:00,
2013-01-20 06:40:00,39.9,26.0,29.50,South,180,20.0,21.0,55,0.00,,,0.02,Rainwise IP-100,2013-01-20 11:40:00,
2013-01-20 06:45:00,40.1,26.0,29.50,South,180,10.0,20.0,56,0.00,,,0.02,Rainwise IP-100,2013-01-20 11:45:00,
2013-01-20 06:50:00,40.0,26.0,29.50,South,180,13.0,17.0,56,0.00,,,0.03,Rainwise IP-100,2013-01-20 11:50:00,
2013-01-20 06:55:00,40.1,26.0,29.49,SE,135,17.0,23.0,56,0.06,,,0.03,Rainwise IP-100,2013-01-20 11:55:00,
2013-01-20 07:00:00,40.2,26.0,29.50,SSW,202,15.0,19.0,56,0.06,,,0.03,Rainwise IP-100,2013-01-20 12:00:00,
2013-01-20 07:06:00,40.3,26.0,29.50,South,180,7.0,22.0,55,0.00,,,0.03,Rainwise IP-100,2013-01-20 12:06:00,
2013-01-20 07:11:00,40.3,26.0,29.50,South,180,14.0,17.0,56,0.00,,,0.03,Rainwise IP-100,2013-01-20 12:11:00,
2013-01-20 07:16:00,40.4,26.0,29.50,South,180,9.0,20.0,56,0.00,,,0.03,Rainwise IP-100,2013-01-20 12:16:00,
2013-01-20 07:21:00,40.6,28.0,29.49,South,180,5.0,23.0,57,0.00,,,0.03,Rainwise IP-100,2013-01-20 12:21:00,
2013-01-20 07:26:00,40.5,28.0,29.49,South,180,5.0,18.0,57,0.00,,,0.03,Rainwise IP-100,2013-01-20 12:26:00,
2013-01-20 07:31:00,40.3,28.0,29.50,South,180,7.0,15.0,58,0.06,,,0.04,Rainwise IP-100,2013-01-20 12:31:00,
2013-01-20 07:36:00,40.5,28.0,29.50,SW,225,9.0,13.0,58,0.06,,,0.04,Rainwise IP-100,2013-01-20 12:36:00,
2013-01-20 07:41:00,40.6,29.0,29.50,South,180,8.0,17.0,60,0.00,,,0.04,Rainwise IP-100,2013-01-20 12:41:00,
2013-01-20 07:46:00,40.3,29.0,29.50,WSW,247,6.0,22.0,62,0.00,,,0.04,Rainwise IP-100,2013-01-20 12:46:00,
2013-01-20 07:51:00,39.9,29.0,29.51,South,180,5.0,22.0,64,0.00,,,0.04,Rainwise IP-100,2013-01-20 12:51:00,
2013-01-20 07:56:00,39.3,31.0,29.53,West,270,6.0,17.0,70,0.00,,,0.04,Rainwise IP-100,2013-01-20 12:56:00,
2013-01-20 08:01:00,35.6,33.0,29.56,SSW,202,2.0,17.0,91,0.06,,,0.05,Rainwise IP-100,2013-01-20 13:01:00,
2013-01-20 08:07:00,33.8,33.0,29.56,South,180,9.0,17.0,95,0.06,,,0.05,Rainwise IP-100,2013-01-20 13:07:00,
2013-01-20 08:12:00,33.1,32.0,29.56,SW,225,7.0,17.0,95,0.00,,,0.05,Rainwise IP-100,2013-01-20 13:12:00,
2013-01-20 08:17:00,32.6,32.0,29.56,SE,135,4.0,19.0,95,0.00,,,0.05,Rainwise IP-100,2013-01-20 13:17:00,
2013-01-20 08:22:00,32.2,31.0,29.57,SSW,202,7.0,12.0,95,0.00,,,0.05,Rainwise IP-100,2013-01-20 13:22:00,
2013-01-20 08:27:00,31.6,31.0,29.56,SE,135,1.0,13.0,95,0.00,,,0.05,Rainwise IP-100,2013-01-20 13:27:00,
2013-01-20 08:32:00,31.1,29.0,29.57,WSW,247,4.0,17.0,95,0.00,,,0.05,Rainwise IP-100,2013-01-20 13:32:00,
2013-01-20 08:37:00,30.9,29.0,29.57,SW,225,4.0,18.0,94,0.00,,,0.05,Rainwise IP-100,2013-01-20 13:37:00,
2013-01-20 08:42:00,30.6,29.0,29.57,SW,225,3.0,14.0,94,0.00,,,0.05,Rainwise IP-100,2013-01-20 13:42:00,
2013-01-20 08:47:00,30.4,29.0,29.57,South,180,6.0,15.0,94,0.00,,,0.05,Rainwise IP-100,2013-01-20 13:47:00,
2013-01-20 08:52:00,30.3,29.0,29.57,WSW,247,4.0,16.0,94,0.00,,,0.05,Rainwise IP-100,2013-01-20 13:52:00,
2013-01-20 08:57:00,30.2,29.0,29.57,SW,225,6.0,11.0,94,0.00,,,0.05,Rainwise IP-100,2013-01-20 13:57:00,
2013-01-20 09:02:00,30.0,29.0,29.57,SW,225,4.0,11.0,94,0.00,,,0.05,Rainwise IP-100,2013-01-20 14:02:00,
2013-01-20 09:08:00,29.9,29.0,29.57,SW,225,2.0,14.0,94,0.00,,,0.05,Rainwise IP-100,2013-01-20 14:08:00,
2013-01-20 09:13:00,29.9,29.0,29.57,SSE,157,13.0,13.0,94,0.00,,,0.05,Rainwise IP-100,2013-01-20 14:13:00,
2013-01-20 09:18:00,29.8,29.0,29.57,SW,225,11.0,14.0,94,0.00,,,0.05,Rainwise IP-100,2013-01-20 14:18:00,
2013-01-20 09:23:00,29.7,29.0,29.57,SSE,157,5.0,12.0,94,0.00,,,0.05,Rainwise IP-100,2013-01-20 14:23:00,
2013-01-20 09:28:00,29.6,29.0,29.57,SSW,202,6.0,12.0,94,0.00,,,0.05,Rainwise IP-100,2013-01-20 14:28:00,
2013-01-20 09:33:00,29.7,29.0,29.55,South,180,3.0,16.0,94,0.00,,,0.05,Rainwise IP-100,2013-01-20 14:33:00,
2013-01-20 09:38:00,29.7,29.0,29.56,West,270,1.0,12.0,94,0.00,,,0.05,Rainwise IP-100,2013-01-20 14:38:00,
2013-01-20 09:43:00,29.7,29.0,29.56,SE,135,7.0,16.0,94,0.00,,,0.05,Rainwise IP-100,2013-01-20 14:43:00,
2013-01-20 09:48:00,29.7,29.0,29.56,ESE,112,2.0,11.0,94,0.00,,,0.05,Rainwise IP-100,2013-01-20 14:48:00,
2013-01-20 09:53:00,29.8,29.0,29.56,SSW,202,15.0,15.0,94,0.00,,,0.05,Rainwise IP-100,2013-01-20 14:53:00,
2013-01-20 09:58:00,29.9,29.0,29.57,SE,135,5.0,15.0,94,0.00,,,0.05,Rainwise IP-100,2013-01-20 14:58:00,
2013-01-20 10:03:00,29.8,29.0,29.57,SSE,157,4.0,16.0,94,0.00,,,0.05,Rainwise IP-100,2013-01-20 15:03:00,
2013-01-20 10:09:00,29.7,29.0,29.57,WSW,247,11.0,12.0,94,0.00,,,0.05,Rainwise IP-100,2013-01-20 15:09:00,
2013-01-20 10:14:00,29.6,29.0,29.57,SW,225,5.0,16.0,94,0.00,,,0.05,Rainwise IP-100,2013-01-20 15:14:00,
2013-01-20 10:19:00,29.7,29.0,29.58,SW,225,7.0,10.0,94,0.00,,,0.05,Rainwise IP-100,2013-01-20 15:19:00,
2013-01-20 10:24:00,29.6,29.0,29.58,NW,315,4.0,16.0,93,0.00,,,0.05,Rainwise IP-100,2013-01-20 15:24:00,
2013-01-20 10:29:00,29.4,28.0,29.58,SSE,157,9.0,19.0,94,0.00,,,0.05,Rainwise IP-100,2013-01-20 15:29:00,
2013-01-20 10:34:00,28.9,28.0,29.58,SW,225,24.0,24.0,94,0.00,,,0.05,Rainwise IP-100,2013-01-20 15:34:00,
2013-01-20 10:39:00,28.5,28.0,29.59,SSE,157,2.0,24.0,94,0.00,,,0.05,Rainwise IP-100,2013-01-20 15:39:00,
2013-01-20 10:44:00,28.3,26.0,29.61,SW,225,5.0,21.0,91,0.00,,,0.05,Rainwise IP-100,2013-01-20 15:44:00,
2013-01-20 10:49:00,28.8,26.0,29.60,SSW,202,7.0,15.0,88,0.00,,,0.05,Rainwise IP-100,2013-01-20 15:49:00,
2013-01-20 10:54:00,28.9,26.0,29.60,South,180,11.0,22.0,87,0.00,,,0.05,Rainwise IP-100,2013-01-20 15:54:00,
2013-01-20 10:59:00,28.2,24.0,29.61,SSW,202,4.0,19.0,86,0.00,,,0.05,Rainwise IP-100,2013-01-20 15:59:00,
2013-01-20 11:04:00,27.9,24.0,29.61,ESE,112,2.0,21.0,85,0.00,,,0.05,Rainwise IP-100,2013-01-20 16:04:00,
2013-01-20 11:10:00,27.7,23.0,29.60,SSW,202,4.0,17.0,81,0.00,,,0.05,Rainwise IP-100,2013-01-20 16:10:00,
2013-01-20 11:15:00,27.4,23.0,29.61,West,270,6.0,26.0,81,0.00,,,0.05,Rainwise IP-100,2013-01-20 16:15:00,
2013-01-20 11:20:00,27.1,24.0,29.60,West,270,5.0,21.0,86,0.00,,,0.05,Rainwise IP-100,2013-01-20 16:20:00,
2013-01-20 11:25:00,27.3,23.0,29.60,South,180,2.0,27.0,82,0.00,,,0.05,Rainwise IP-100,2013-01-20 16:25:00,
2013-01-20 11:30:00,27.3,23.0,29.60,WSW,247,4.0,22.0,82,0.00,,,0.05,Rainwise IP-100,2013-01-20 16:30:00,
2013-01-20 11:35:00,27.1,24.0,29.60,WNW,292,2.0,20.0,85,0.00,,,0.05,Rainwise IP-100,2013-01-20 16:35:00,
2013-01-20 11:40:00,26.8,24.0,29.60,SW,225,13.0,14.0,88,0.00,,,0.05,Rainwise IP-100,2013-01-20 16:40:00,
2013-01-20 11:45:00,26.2,24.0,29.62,SSE,157,6.0,18.0,94,0.00,,,0.05,Rainwise IP-100,2013-01-20 16:45:00,
2013-01-20 11:50:00,25.9,24.0,29.61,South,180,7.0,13.0,92,0.00,,,0.05,Rainwise IP-100,2013-01-20 16:50:00,
2013-01-20 11:55:00,25.9,23.0,29.62,SE,135,4.0,15.0,87,0.00,,,0.05,Rainwise IP-100,2013-01-20 16:55:00,
2013-01-20 12:00:00,26.2,23.0,29.61,WNW,292,3.0,19.0,85,0.00,,,0.05,Rainwise IP-100,2013-01-20 17:00:00,
2013-01-20 12:05:00,26.8,23.0,29.61,SE,135,5.0,17.0,80,0.00,,,0.05,Rainwise IP-100,2013-01-20 17:05:00,
2013-01-20 12:11:00,26.6,23.0,29.61,SW,225,8.0,23.0,80,0.00,,,0.05,Rainwise IP-100,2013-01-20 17:11:00,
2013-01-20 12:16:00,26.5,23.0,29.61,SW,225,10.0,18.0,80,0.00,,,0.05,Rainwise IP-100,2013-01-20 17:16:00,
2013-01-20 12:21:00,26.5,23.0,29.60,West,270,4.0,16.0,79,0.00,,,0.05,Rainwise IP-100,2013-01-20 17:21:00,
2013-01-20 12:26:00,26.3,21.0,29.62,South,180,5.0,19.0,81,0.00,,,0.05,Rainwise IP-100,2013-01-20 17:26:00,
2013-01-20 12:31:00,25.9,23.0,29.63,NW,315,1.0,14.0,86,0.00,,,0.05,Rainwise IP-100,2013-01-20 17:31:00,
2013-01-20 12:36:00,25.4,24.0,29.63,SSW,202,4.0,15.0,91,0.00,,,0.05,Rainwise IP-100,2013-01-20 17:36:00,
2013-01-20 12:41:00,25.4,24.0,29.63,SW,225,6.0,19.0,90,0.00,,,0.05,Rainwise IP-100,2013-01-20 17:41:00,
2013-01-20 12:46:00,25.9,23.0,29.64,ESE,112,3.0,10.0,89,0.00,,,0.05,Rainwise IP-100,2013-01-20 17:46:00,
2013-01-20 12:51:00,26.3,21.0,29.63,South,180,10.0,21.0,82,0.00,,,0.05,Rainwise IP-100,2013-01-20 17:51:00,
2013-01-20 12:56:00,26.1,21.0,29.64,SW,225,6.0,17.0,82,0.00,,,0.05,Rainwise IP-100,2013-01-20 17:56:00,
2013-01-20 13:01:00,25.6,21.0,29.65,SW,225,4.0,21.0,79,0.00,,,0.05,Rainwise IP-100,2013-01-20 18:01:00,
2013-01-20 13:06:00,25.3,21.0,29.66,SSW,202,22.0,22.0,79,0.00,,,0.05,Rainwise IP-100,2013-01-20 18:06:00,
2013-01-20 13:12:00,24.9,21.0,29.66,NW,315,2.0,23.0,79,0.00,,,0.05,Rainwise IP-100,2013-01-20 18:12:00,
2013-01-20 13:17:00,25.2,21.0,29.66,North,360,2.0,16.0,80,0.00,,,0.05,Rainwise IP-100,2013-01-20 18:17:00,
2013-01-20 13:22:00,24.9,21.0,29.67,South,180,9.0,19.0,78,0.00,,,0.05,Rainwise IP-100,2013-01-20 18:22:00,
2013-01-20 13:27:00,24.3,18.0,29.67,South,180,4.0,27.0,76,0.00,,,0.05,Rainwise IP-100,2013-01-20 18:27:00,
2013-01-20 13:32:00,24.0,18.0,29.67,SW,225,7.0,24.0,75,0.00,,,0.05,Rainwise IP-100,2013-01-20 18:32:00,
2013-01-20 13:37:00,24.0,16.0,29.67,SSE,157,4.0,23.0,72,0.00,,,0.05,Rainwise IP-100,2013-01-20 18:37:00,
2013-01-20 13:42:00,23.6,16.0,29.69,WNW,292,3.0,27.0,71,0.00,,,0.05,Rainwise IP-100,2013-01-20 18:42:00,
2013-01-20 13:47:00,23.3,16.0,29.68,SW,225,13.0,24.0,71,0.00,,,0.05,Rainwise IP-100,2013-01-20 18:47:00,
2013-01-20 13:52:00,23.1,16.0,29.68,SSE,157,9.0,23.0,72,0.00,,,0.05,Rainwise IP-100,2013-01-20 18:52:00,
2013-01-20 13:57:00,22.9,16.0,29.69,South,180,4.0,18.0,73,0.00,,,0.05,Rainwise IP-100,2013-01-20 18:57:00,
2013-01-20 14:02:00,22.9,16.0,29.69,SSE,157,7.0,19.0,75,0.00,,,0.05,Rainwise IP-100,2013-01-20 19:02:00,
2013-01-20 14:07:00,22.6,16.0,29.69,WSW,247,9.0,14.0,78,0.00,,,0.05,Rainwise IP-100,2013-01-20 19:07:00,
2013-01-20 14:13:00,22.1,18.0,29.70,South,180,2.0,16.0,86,0.00,,,0.05,Rainwise IP-100,2013-01-20 19:13:00,
2013-01-20 14:18:00,21.7,18.0,29.71,West,270,10.0,22.0,81,0.00,,,0.05,Rainwise IP-100,2013-01-20 19:18:00,
2013-01-20 14:23:00,21.6,16.0,29.72,West,270,8.0,22.0,79,0.00,,,0.05,Rainwise IP-100,2013-01-20 19:23:00,
2013-01-20 14:28:00,21.6,16.0,29.71,NE,45,6.0,24.0,77,0.00,,,0.05,Rainwise IP-100,2013-01-20 19:28:00,
2013-01-20 14:33:00,21.4,16.0,29.71,NW,315,2.0,19.0,79,0.00,,,0.05,Rainwise IP-100,2013-01-20 19:33:00,
2013-01-20 14:38:00,21.4,14.0,29.73,South,180,3.0,19.0,77,0.00,,,0.05,Rainwise IP-100,2013-01-20 19:38:00,
2013-01-20 14:43:00,21.5,16.0,29.72,NW,315,13.0,18.0,76,0.00,,,0.05,Rainwise IP-100,2013-01-20 19:43:00,
2013-01-20 14:48:00,21.6,16.0,29.72,South,180,5.0,27.0,72,0.00,,,0.05,Rainwise IP-100,2013-01-20 19:48:00,
2013-01-20 14:53:00,21.6,16.0,29.72,WSW,247,14.0,17.0,72,0.00,,,0.05,Rainwise IP-100,2013-01-20 19:53:00,
2013-01-20 14:58:00,21.5,16.0,29.73,SW,225,2.0,24.0,73,0.00,,,0.05,Rainwise IP-100,2013-01-20 19:58:00,
2013-01-20 15:03:00,21.4,14.0,29.73,South,180,3.0,19.0,75,0.00,,,0.05,Rainwise IP-100,2013-01-20 20:03:00,
2013-01-20 15:08:00,21.4,14.0,29.73,South,180,6.0,13.0,74,0.00,,,0.05,Rainwise IP-100,2013-01-20 20:08:00,
2013-01-20 15:14:00,21.4,14.0,29.74,WSW,247,2.0,11.0,76,0.00,,,0.05,Rainwise IP-100,2013-01-20 20:14:00,
2013-01-20 15:19:00,21.2,14.0,29.74,SSW,202,5.0,19.0,75,0.00,,,0.05,Rainwise IP-100,2013-01-20 20:19:00,
2013-01-20 15:24:00,20.9,16.0,29.75,SSW,202,6.0,19.0,79,0.00,,,0.05,Rainwise IP-100,2013-01-20 20:24:00,
2013-01-20 15:29:00,20.7,16.0,29.76,West,270,11.0,17.0,81,0.00,,,0.05,Rainwise IP-100,2013-01-20 20:29:00,
2013-01-20 15:34:00,20.4,16.0,29.76,SW,225,7.0,20.0,84,0.00,,,0.05,Rainwise IP-100,2013-01-20 20:34:00,
2013-01-20 15:39:00,20.4,16.0,29.76,SE,135,2.0,16.0,82,0.00,,,0.05,Rainwise IP-100,2013-01-20 20:39:00,
2013-01-20 15:44:00,20.3,16.0,29.77,South,180,11.0,15.0,81,0.00,,,0.05,Rainwise IP-100,2013-01-20 20:44:00,
2013-01-20 15:49:00,20.3,16.0,29.77,WSW,247,11.0,15.0,78,0.00,,,0.05,Rainwise IP-100,2013-01-20 20:49:00,
2013-01-20 15:54:00,20.2,14.0,29.78,WNW,292,2.0,14.0,77,0.00,,,0.05,Rainwise IP-100,2013-01-20 20:54:00,
2013-01-20 16:00:00,20.2,14.0,29.79,West,270,6.0,9.0,76,0.00,,,0.05,Rainwise IP-100,2013-01-20 21:00:00,
2013-01-20 16:05:00,19.9,14.0,29.79,SW,225,3.0,18.0,77,0.00,,,0.05,Rainwise IP-100,2013-01-20 21:05:00,
2013-01-20 16:10:00,19.7,14.0,29.79,SW,225,2.0,17.0,75,0.00,,,0.05,Rainwise IP-100,2013-01-20 21:10:00,
2013-01-20 16:16:00,19.6,14.0,29.80,NE,45,2.0,14.0,75,0.00,,,0.05,Rainwise IP-100,2013-01-20 21:16:00,
2013-01-20 16:21:00,19.4,14.0,29.80,SW,225,1.0,12.0,76,0.00,,,0.05,Rainwise IP-100,2013-01-20 21:21:00,
2013-01-20 16:26:00,19.3,14.0,29.80,SW,225,7.0,12.0,77,0.00,,,0.05,Rainwise IP-100,2013-01-20 21:26:00,
2013-01-20 16:31:00,19.2,14.0,29.80,SW,225,5.0,16.0,77,0.00,,,0.05,Rainwise IP-100,2013-01-20 21:31:00,
2013-01-20 16:36:00,18.9,16.0,29.81,East,90,2.0,13.0,83,0.00,,,0.05,Rainwise IP-100,2013-01-20 21:36:00,
2013-01-20 16:42:00,18.7,16.0,29.81,West,270,3.0,11.0,84,0.00,,,0.05,Rainwise IP-100,2013-01-20 21:42:00,
2013-01-20 16:48:00,18.4,16.0,29.81,SW,225,4.0,11.0,85,0.00,,,0.05,Rainwise IP-100,2013-01-20 21:48:00,
2013-01-20 16:53:00,18.3,16.0,29.82,NNW,337,6.0,10.0,86,0.00,,,0.05,Rainwise IP-100,2013-01-20 21:53:00,
2013-01-20 16:58:00,18.1,16.0,29.82,North,360,2.0,9.0,85,0.00,,,0.05,Rainwise IP-100,2013-01-20 21:58:00,
2013-01-20 17:03:00,17.9,14.0,29.82,South,180,1.0,10.0,82,0.00,,,0.05,Rainwise IP-100,2013-01-20 22:03:00,
2013-01-20 17:08:00,17.9,14.0,29.82,West,270,2.0,7.0,82,0.00,,,0.05,Rainwise IP-100,2013-01-20 22:08:00,
2013-01-20 17:14:00,17.8,14.0,29.83,South,180,2.0,7.0,82,0.00,,,0.05,Rainwise IP-100,2013-01-20 22:14:00,
2013-01-20 17:19:00,17.8,14.0,29.83,SSE,157,4.0,6.0,79,0.00,,,0.05,Rainwise IP-100,2013-01-20 22:19:00,
2013-01-20 17:24:00,17.6,14.0,29.83,SSW,202,1.0,7.0,78,0.00,,,0.05,Rainwise IP-100,2013-01-20 22:24:00,
2013-01-20 17:29:00,17.5,14.0,29.83,South,180,2.0,11.0,77,0.00,,,0.05,Rainwise IP-100,2013-01-20 22:29:00,
2013-01-20 17:34:00,17.4,14.0,29.84,SSW,202,7.0,9.0,81,0.00,,,0.05,Rainwise IP-100,2013-01-20 22:34:00,
2013-01-20 17:39:00,17.2,16.0,29.84,SE,135,2.0,9.0,85,0.00,,,0.05,Rainwise IP-100,2013-01-20 22:39:00,
2013-01-20 17:44:00,16.8,16.0,29.84,SSW,202,2.0,17.0,90,0.00,,,0.05,Rainwise IP-100,2013-01-20 22:44:00,
2013-01-20 17:49:00,16.5,16.0,29.84,WSW,247,8.0,10.0,93,0.00,,,0.05,Rainwise IP-100,2013-01-20 22:49:00,
2013-01-20 17:54:00,16.3,14.0,29.84,West,270,4.0,13.0,93,0.00,,,0.05,Rainwise IP-100,2013-01-20 22:54:00,
2013-01-20 17:59:00,16.2,14.0,29.85,SSW,202,3.0,7.0,93,0.00,,,0.05,Rainwise IP-100,2013-01-20 22:59:00,
2013-01-20 18:05:00,16.2,14.0,29.86,South,180,1.0,9.0,93,0.00,,,0.05,Rainwise IP-100,2013-01-20 23:05:00,
2013-01-20 18:10:00,15.9,14.0,29.86,WSW,247,2.0,11.0,93,0.00,,,0.05,Rainwise IP-100,2013-01-20 23:10:00,
2013-01-20 18:16:00,15.6,14.0,29.87,SW,225,2.0,12.0,93,0.00,,,0.05,Rainwise IP-100,2013-01-20 23:16:00,
2013-01-20 18:21:00,15.5,14.0,29.87,West,270,3.0,12.0,93,0.00,,,0.05,Rainwise IP-100,2013-01-20 23:21:00,
2013-01-20 18:26:00,15.4,14.0,29.88,WSW,247,4.0,10.0,89,0.00,,,0.05,Rainwise IP-100,2013-01-20 23:26:00,
2013-01-20 18:31:00,15.2,14.0,29.88,SW,225,6.0,17.0,85,0.00,,,0.05,Rainwise IP-100,2013-01-20 23:31:00,
2013-01-20 18:36:00,15.1,14.0,29.88,South,180,4.0,13.0,84,0.00,,,0.05,Rainwise IP-100,2013-01-20 23:36:00,
2013-01-20 18:42:00,14.8,11.0,29.88,South,180,2.0,13.0,83,0.00,,,0.05,Rainwise IP-100,2013-01-20 23:42:00,
2013-01-20 18:48:00,14.7,14.0,29.89,South,180,2.0,10.0,85,0.00,,,0.05,Rainwise IP-100,2013-01-20 23:48:00,
2013-01-20 18:53:00,14.6,14.0,29.89,SW,225,3.0,14.0,84,0.00,,,0.05,Rainwise IP-100,2013-01-20 23:53:00,
2013-01-20 18:58:00,14.3,11.0,29.89,South,180,7.0,17.0,82,0.00,,,0.05,Rainwise IP-100,2013-01-20 23:58:00,
2013-01-20 19:03:00,13.9,8.0,29.89,SE,135,2.0,14.0,80,0.00,,,0.05,Rainwise IP-100,2013-01-21 00:03:00,
2013-01-20 19:08:00,13.8,8.0,29.89,West,270,2.0,17.0,79,0.00,,,0.05,Rainwise IP-100,2013-01-21 00:08:00,
2013-01-20 19:13:00,13.5,8.0,29.89,SSW,202,9.0,12.0,78,0.00,,,0.05,Rainwise IP-100,2013-01-21 00:13:00,
2013-01-20 19:19:00,13.3,8.0,29.90,South,180,5.0,20.0,78,0.00,,,0.05,Rainwise IP-100,2013-01-21 00:19:00,
2013-01-20 19:24:00,12.9,8.0,29.90,SSE,157,2.0,23.0,77,0.00,,,0.05,Rainwise IP-100,2013-01-21 00:24:00,
2013-01-20 19:29:00,12.8,8.0,29.90,SSW,202,1.0,16.0,75,0.00,,,0.05,Rainwise IP-100,2013-01-21 00:29:00,
2013-01-20 19:34:00,12.7,8.0,29.90,SE,135,6.0,11.0,76,0.00,,,0.05,Rainwise IP-100,2013-01-21 00:34:00,
2013-01-20 19:39:00,12.5,8.0,29.90,SW,225,9.0,10.0,76,0.00,,,0.05,Rainwise IP-100,2013-01-21 00:39:00,
2013-01-20 19:44:00,12.4,8.0,29.91,South,180,12.0,17.0,75,0.00,,,0.05,Rainwise IP-100,2013-01-21 00:44:00,
2013-01-20 19:49:00,12.3,8.0,29.91,South,180,6.0,14.0,74,0.00,,,0.05,Rainwise IP-100,2013-01-21 00:49:00,
2013-01-20 19:54:00,12.1,8.0,29.91,SSW,202,9.0,12.0,73,0.00,,,0.05,Rainwise IP-100,2013-01-21 00:54:00,
2013-01-20 19:59:00,11.9,8.0,29.91,West,270,7.0,16.0,73,0.00,,,0.05,Rainwise IP-100,2013-01-21 00:59:00,
2013-01-20 20:04:00,11.7,8.0,29.92,NNE,22,1.0,14.0,72,0.00,,,0.05,Rainwise IP-100,2013-01-21 01:04:00,
2013-01-20 20:09:00,11.5,8.0,29.92,SW,225,9.0,18.0,71,0.00,,,0.05,Rainwise IP-100,2013-01-21 01:09:00,
2013-01-20 20:14:00,11.2,4.0,29.92,SSE,157,1.0,10.0,73,0.00,,,0.05,Rainwise IP-100,2013-01-21 01:14:00,
2013-01-20 20:20:00,10.9,4.0,29.92,SW,225,2.0,17.0,71,0.00,,,0.05,Rainwise IP-100,2013-01-21 01:20:00,
2013-01-20 20:25:00,10.8,4.0,29.92,SW,225,2.0,14.0,72,0.00,,,0.05,Rainwise IP-100,2013-01-21 01:25:00,
2013-01-20 20:30:00,10.7,4.0,29.92,South,180,6.0,16.0,70,0.00,,,0.05,Rainwise IP-100,2013-01-21 01:30:00,
2013-01-20 20:35:00,10.6,4.0,29.92,South,180,2.0,11.0,69,0.00,,,0.05,Rainwise IP-100,2013-01-21 01:35:00,
2013-01-20 20:40:00,10.3,4.0,29.93,West,270,2.0,14.0,70,0.00,,,0.05,Rainwise IP-100,2013-01-21 01:40:00,
2013-01-20 20:45:00,10.3,4.0,29.93,WSW,247,4.0,14.0,70,0.00,,,0.05,Rainwise IP-100,2013-01-21 01:45:00,
2013-01-20 20:50:00,10.1,4.0,29.94,North,360,2.0,9.0,70,0.00,,,0.05,Rainwise IP-100,2013-01-21 01:50:00,
2013-01-20 20:55:00,9.9,4.0,29.94,South,180,4.0,8.0,70,0.00,,,0.05,Rainwise IP-100,2013-01-21 01:55:00,
2013-01-20 21:00:00,9.7,4.0,29.94,South,180,2.0,10.0,69,0.00,,,0.05,Rainwise IP-100,2013-01-21 02:00:00,
2013-01-20 21:05:00,9.4,4.0,29.93,South,180,0.0,11.0,68,0.00,,,0.05,Rainwise IP-100,2013-01-21 02:05:00,
2013-01-20 21:10:00,9.3,4.0,29.94,NW,315,2.0,15.0,68,0.00,,,0.05,Rainwise IP-100,2013-01-21 02:10:00,
2013-01-20 21:15:00,9.3,4.0,29.94,West,270,2.0,17.0,67,0.00,,,0.05,Rainwise IP-100,2013-01-21 02:15:00,
2013-01-20 21:21:00,9.1,4.0,29.94,SW,225,1.0,14.0,67,0.00,,,0.05,Rainwise IP-100,2013-01-21 02:21:00,
2013-01-20 21:26:00,8.9,4.0,29.94,SSW,202,3.0,14.0,68,0.00,,,0.05,Rainwise IP-100,2013-01-21 02:26:00,
2013-01-20 21:31:00,8.6,4.0,29.95,SSW,202,9.0,12.0,69,0.00,,,0.05,Rainwise IP-100,2013-01-21 02:31:00,
2013-01-20 21:36:00,8.4,0.0,29.95,NW,315,5.0,11.0,69,0.00,,,0.05,Rainwise IP-100,2013-01-21 02:36:00,
2013-01-20 21:41:00,8.2,0.0,29.95,SE,135,4.0,14.0,69,0.00,,,0.05,Rainwise IP-100,2013-01-21 02:41:00,
2013-01-20 21:46:00,8.2,0.0,29.95,SSE,157,1.0,9.0,69,0.00,,,0.05,Rainwise IP-100,2013-01-21 02:46:00,
2013-01-20 21:51:00,8.1,0.0,29.96,SW,225,1.0,14.0,70,0.00,,,0.05,Rainwise IP-100,2013-01-21 02:51:00,
2013-01-20 21:56:00,8.1,0.0,29.96,North,360,1.0,7.0,70,0.00,,,0.05,Rainwise IP-100,2013-01-21 02:56:00,
2013-01-20 22:01:00,7.9,0.0,29.95,ENE,67,0.0,4.0,70,0.00,,,0.05,Rainwise IP-100,2013-01-21 03:01:00,
2013-01-20 22:07:00,7.6,0.0,29.96,ESE,112,2.0,9.0,71,0.00,,,0.05,Rainwise IP-100,2013-01-21 03:07:00,
2013-01-20 22:12:00,7.8,0.0,29.95,West,270,1.0,15.0,70,0.00,,,0.05,Rainwise IP-100,2013-01-21 03:12:00,
2013-01-20 22:19:00,7.7,0.0,29.96,SE,135,2.0,15.0,71,0.00,,,0.05,Rainwise IP-100,2013-01-21 03:19:00,
2013-01-20 22:24:00,7.6,0.0,29.95,South,180,6.0,12.0,71,0.00,,,0.05,Rainwise IP-100,2013-01-21 03:24:00,
2013-01-20 22:29:00,7.7,0.0,29.96,West,270,6.0,12.0,71,0.00,,,0.05,Rainwise IP-100,2013-01-21 03:29:00,
2013-01-20 22:34:00,7.5,0.0,29.96,SW,225,2.0,17.0,72,0.00,,,0.05,Rainwise IP-100,2013-01-21 03:34:00,
2013-01-20 22:39:00,7.4,0.0,29.96,SE,135,2.0,6.0,72,0.00,,,0.05,Rainwise IP-100,2013-01-21 03:39:00,
2013-01-20 22:44:00,7.1,0.0,29.96,NE,45,2.0,9.0,72,0.00,,,0.05,Rainwise IP-100,2013-01-21 03:44:00,
2013-01-20 22:49:00,7.1,0.0,29.96,West,270,2.0,12.0,72,0.00,,,0.05,Rainwise IP-100,2013-01-21 03:49:00,
2013-01-20 22:54:00,7.3,0.0,29.96,SSW,202,12.0,13.0,71,0.00,,,0.05,Rainwise IP-100,2013-01-21 03:54:00,
2013-01-20 22:59:00,7.4,0.0,29.96,WNW,292,6.0,12.0,70,0.00,,,0.05,Rainwise IP-100,2013-01-21 03:59:00,
2013-01-20 23:04:00,7.2,0.0,29.97,South,180,4.0,12.0,70,0.00,,,0.05,Rainwise IP-100,2013-01-21 04:04:00,
2013-01-20 23:09:00,7.2,0.0,29.96,WSW,247,1.0,12.0,71,0.00,,,0.05,Rainwise IP-100,2013-01-21 04:09:00,
2013-01-20 23:14:00,6.9,0.0,29.97,SE,135,1.0,11.0,71,0.00,,,0.05,Rainwise IP-100,2013-01-21 04:14:00,
2013-01-20 23:20:00,6.9,0.0,29.97,SSE,157,4.0,12.0,71,0.00,,,0.05,Rainwise IP-100,2013-01-21 04:20:00,
2013-01-20 23:25:00,6.9,0.0,29.97,WSW,247,2.0,14.0,71,0.00,,,0.05,Rainwise IP-100,2013-01-21 04:25:00,
2013-01-20 23:30:00,6.9,0.0,29.97,SSE,157,1.0,12.0,71,0.00,,,0.05,Rainwise IP-100,2013-01-21 04:30:00,
2013-01-20 23:35:00,6.6,0.0,29.97,South,180,2.0,16.0,72,0.00,,,0.05,Rainwise IP-100,2013-01-21 04:35:00,
2013-01-20 23:40:00,6.6,0.0,29.97,SW,225,6.0,12.0,72,0.00,,,0.05,Rainwise IP-100,2013-01-21 04:40:00,
2013-01-20 23:45:00,6.6,0.0,29.97,South,180,2.0,12.0,72,0.00,,,0.05,Rainwise IP-100,2013-01-21 04:45:00,
2013-01-20 23:50:00,6.6,0.0,29.97,West,270,7.0,8.0,71,0.00,,,0.05,Rainwise IP-100,2013-01-21 04:50:00,
2013-01-20 23:55:00,6.5,0.0,29.97,South,180,0.0,14.0,72,0.00,,,0.05,Rainwise IP-100,2013-01-21 04:55:00,